Time,TemperatureF,DewpointF,PressureIn,WindDirection,WindDirectionDegrees,WindSpeedMPH,WindSpeedGustMPH,Humidity,HourlyPrecipIn,Conditions,Clouds,dailyrainin,SoftwareType,DateUTC
2013-02-12 00:00:00,68.7,64.3,29.91,SSE,158,2.2,2.2,86,0.00,,---,0.00,VWS V14.00,2013-02-12 05:00:00,
2013-02-12 00:05:00,68.7,64.3,29.91,WSW,248,0.0,0.0,86,0.00,,---,0.00,VWS V14.00,2013-02-12 05:05:00,
2013-02-12 00:10:00,68.7,64.0,29.91,SSW,202,4.9,4.9,85,0.00,,---,0.00,VWS V14.00,2013-02-12 05:10:00,
2013-02-12 00:15:00,68.7,64.0,29.91,SW,225,4.4,4.4,85,0.00,,---,0.00,VWS V14.00,2013-02-12 05:15:00,
2013-02-12 00:20:00,68.7,64.0,29.90,SW,225,4.9,4.9,85,0.00,,---,0.00,VWS V14.00,2013-02-12 05:20:00,
2013-02-12 00:25:00,68.7,64.3,29.90,SW,225,6.2,6.2,86,0.00,,---,0.00,VWS V14.00,2013-02-12 05:25:00,
2013-02-12 00:30:00,68.7,64.3,29.90,SSW,202,6.2,6.2,86,0.00,,---,0.00,VWS V14.00,2013-02-12 05:30:00,
2013-02-12 00:35:00,68.7,64.3,29.90,SW,225,2.9,2.9,86,0.00,,---,0.00,VWS V14.00,2013-02-12 05:35:00,
2013-02-12 00:40:00,68.7,64.3,29.90,SE,135,1.7,1.7,86,0.00,,---,0.00,VWS V14.00,2013-02-12 05:40:00,
2013-02-12 00:45:00,68.7,64.3,29.90,SSW,202,1.7,1.7,86,0.00,,---,0.00,VWS V14.00,2013-02-12 05:45:00,
2013-02-12 00:50:00,68.7,64.3,29.90,SW,225,7.8,7.8,86,0.00,,---,0.00,VWS V14.00,2013-02-12 05:50:00,
2013-02-12 00:55:00,68.7,64.3,29.90,SSW,202,5.8,5.8,86,0.00,,---,0.00,VWS V14.00,2013-02-12 05:55:00,
2013-02-12 01:00:00,68.7,64.3,29.90,South,180,2.0,2.0,86,0.00,,---,0.00,VWS V14.00,2013-02-12 06:00:00,
2013-02-12 01:05:00,68.7,64.3,29.90,SW,225,0.0,0.0,86,0.00,,---,0.00,VWS V14.00,2013-02-12 06:05:00,
2013-02-12 01:10:00,68.7,64.3,29.90,SSW,202,4.0,4.0,86,0.00,,---,0.00,VWS V14.00,2013-02-12 06:10:00,
2013-02-12 01:15:00,68.7,64.3,29.90,SSW,202,3.5,3.5,86,0.00,,---,0.00,VWS V14.00,2013-02-12 06:15:00,
2013-02-12 01:20:00,68.7,64.3,29.90,SSW,202,4.2,4.2,86,0.00,,---,0.00,VWS V14.00,2013-02-12 06:20:00,
2013-02-12 01:25:00,68.7,64.3,29.90,SSW,202,2.4,2.4,86,0.00,,---,0.00,VWS V14.00,2013-02-12 06:25:00,
2013-02-12 01:30:00,68.7,64.3,29.90,SW,225,3.3,3.3,86,0.00,,---,0.00,VWS V14.00,2013-02-12 06:30:00,
2013-02-12 01:35:00,68.7,64.3,29.90,SSW,202,0.0,0.0,86,0.00,,---,0.00,VWS V14.00,2013-02-12 06:35:00,
2013-02-12 01:40:00,68.7,64.3,29.90,SSW,202,0.0,0.0,86,0.00,,---,0.00,VWS V14.00,2013-02-12 06:40:00,
2013-02-12 01:45:00,68.7,64.3,29.90,SSW,202,3.8,3.8,86,0.00,,---,0.00,VWS V14.00,2013-02-12 06:45:00,
2013-02-12 01:50:00,68.7,64.3,29.90,South,180,2.6,2.6,86,0.00,,---,0.00,VWS V14.00,2013-02-12 06:50:00,
2013-02-12 01:55:00,68.7,64.3,29.90,SSW,202,5.5,5.5,86,0.00,,---,0.00,VWS V14.00,2013-02-12 06:55:00,
2013-02-12 02:00:00,68.7,64.3,29.90,SSW,202,1.3,1.3,86,0.00,,---,0.00,VWS V14.00,2013-02-12 07:00:00,
2013-02-12 02:05:00,68.7,64.3,29.90,SW,225,0.6,0.6,86,0.00,,---,0.00,VWS V14.00,2013-02-12 07:05:00,
2013-02-12 02:10:00,68.7,64.3,29.89,South,180,0.6,0.6,86,0.00,,---,0.00,VWS V14.00,2013-02-12 07:10:00,
2013-02-12 02:15:00,68.5,64.2,29.90,South,180,0.0,0.0,86,0.00,,---,0.00,VWS V14.00,2013-02-12 07:15:00,
2013-02-12 02:20:00,68.5,64.2,29.89,SW,225,1.3,1.3,86,0.00,,---,0.00,VWS V14.00,2013-02-12 07:20:00,
2013-02-12 02:25:00,68.5,64.2,29.89,SSW,202,1.5,1.5,86,0.00,,---,0.00,VWS V14.00,2013-02-12 07:25:00,
2013-02-12 02:30:00,68.5,64.5,29.89,SSW,202,4.4,4.4,87,0.00,,---,0.00,VWS V14.00,2013-02-12 07:30:00,
2013-02-12 02:35:00,68.7,64.7,29.88,SSW,202,3.8,3.8,87,0.00,,---,0.00,VWS V14.00,2013-02-12 07:35:00,
2013-02-12 02:40:00,68.7,64.7,29.88,SW,225,3.5,3.5,87,0.00,,---,0.00,VWS V14.00,2013-02-12 07:40:00,
2013-02-12 02:45:00,68.7,64.7,29.88,WSW,248,0.0,0.0,87,0.00,,---,0.00,VWS V14.00,2013-02-12 07:45:00,
2013-02-12 02:50:00,68.7,64.3,29.88,SSW,202,4.9,4.9,86,0.00,,---,0.00,VWS V14.00,2013-02-12 07:50:00,
2013-02-12 02:55:00,68.7,64.3,29.88,SSW,202,1.3,1.3,86,0.00,,---,0.00,VWS V14.00,2013-02-12 07:55:00,
2013-02-12 03:00:00,68.7,64.3,29.88,SSW,202,1.1,1.1,86,0.00,,---,0.00,VWS V14.00,2013-02-12 08:00:00,
2013-02-12 03:05:00,68.5,64.2,29.87,SW,225,3.5,3.5,86,0.00,,---,0.00,VWS V14.00,2013-02-12 08:05:00,
2013-02-12 03:09:00,68.5,64.2,29.88,South,180,2.0,2.0,86,0.00,,---,0.00,VWS V14.00,2013-02-12 08:09:00,
2013-02-12 03:14:00,68.3,64.0,29.88,SSW,202,0.8,0.8,86,0.00,,---,0.00,VWS V14.00,2013-02-12 08:14:00,
2013-02-12 03:19:00,68.3,64.3,29.88,SW,225,6.9,6.9,87,0.00,,---,0.00,VWS V14.00,2013-02-12 08:19:00,
2013-02-12 03:24:00,68.1,64.1,29.88,SSW,202,3.1,3.1,87,0.00,,---,0.00,VWS V14.00,2013-02-12 08:24:00,
2013-02-12 03:29:00,68.1,64.1,29.88,SSW,202,1.3,1.3,87,0.00,,---,0.00,VWS V14.00,2013-02-12 08:29:00,
2013-02-12 03:34:00,68.1,64.1,29.87,SSW,202,3.5,3.5,87,0.00,,---,0.00,VWS V14.00,2013-02-12 08:34:00,
2013-02-12 03:39:00,68.1,64.1,29.87,SSW,202,1.3,1.3,87,0.00,,---,0.00,VWS V14.00,2013-02-12 08:39:00,
2013-02-12 03:44:00,68.1,64.1,29.87,SSW,202,0.0,0.0,87,0.00,,---,0.00,VWS V14.00,2013-02-12 08:44:00,
2013-02-12 03:49:00,68.0,64.0,29.87,SW,225,2.0,2.0,87,0.00,,---,0.00,VWS V14.00,2013-02-12 08:49:00,
2013-02-12 03:54:00,68.0,64.0,29.87,SSW,202,2.2,2.2,87,0.00,,---,0.00,VWS V14.00,2013-02-12 08:54:00,
2013-02-12 03:59:00,67.8,63.8,29.87,SSW,202,0.0,0.0,87,0.00,,---,0.00,VWS V14.00,2013-02-12 08:59:00,
2013-02-12 04:04:00,67.8,63.8,29.87,SSW,202,3.5,3.5,87,0.00,,---,0.00,VWS V14.00,2013-02-12 09:04:00,
2013-02-12 04:09:00,67.8,63.8,29.87,SSW,202,1.1,1.1,87,0.00,,---,0.00,VWS V14.00,2013-02-12 09:09:00,
2013-02-12 04:14:00,67.8,63.8,29.87,SW,225,1.7,1.7,87,0.00,,---,0.00,VWS V14.00,2013-02-12 09:14:00,
2013-02-12 04:19:00,67.8,64.1,29.87,SSW,202,0.0,0.0,88,0.00,,---,0.00,VWS V14.00,2013-02-12 09:19:00,
2013-02-12 04:24:00,67.8,64.1,29.86,SSW,202,0.2,0.2,88,0.00,,---,0.00,VWS V14.00,2013-02-12 09:24:00,
2013-02-12 04:29:00,67.8,64.1,29.87,SSW,202,2.0,2.0,88,0.00,,---,0.00,VWS V14.00,2013-02-12 09:29:00,
2013-02-12 04:34:00,67.8,64.1,29.86,SW,225,2.2,2.2,88,0.00,,---,0.00,VWS V14.00,2013-02-12 09:34:00,
2013-02-12 04:39:00,67.8,64.1,29.86,SSW,202,3.3,3.3,88,0.00,,---,0.00,VWS V14.00,2013-02-12 09:39:00,
2013-02-12 04:44:00,67.8,64.1,29.86,SSW,202,0.0,0.0,88,0.00,,---,0.00,VWS V14.00,2013-02-12 09:44:00,
2013-02-12 04:49:00,67.8,64.1,29.86,SW,225,3.8,3.8,88,0.00,,---,0.00,VWS V14.00,2013-02-12 09:49:00,
2013-02-12 04:54:00,67.8,64.1,29.86,South,180,0.6,0.6,88,0.00,,---,0.00,VWS V14.00,2013-02-12 09:54:00,
2013-02-12 04:59:00,67.8,64.1,29.86,SW,225,2.2,2.2,88,0.00,,---,0.00,VWS V14.00,2013-02-12 09:59:00,
2013-02-12 05:04:00,67.8,64.1,29.86,SW,225,2.9,2.9,88,0.00,,---,0.00,VWS V14.00,2013-02-12 10:04:00,
2013-02-12 05:09:00,67.8,64.1,29.87,SSW,202,2.2,2.2,88,0.00,,---,0.00,VWS V14.00,2013-02-12 10:09:00,
2013-02-12 05:14:00,67.8,64.1,29.87,SSW,202,0.8,0.8,88,0.00,,---,0.00,VWS V14.00,2013-02-12 10:14:00,
2013-02-12 05:19:00,67.8,64.1,29.87,SSW,202,2.9,2.9,88,0.00,,---,0.00,VWS V14.00,2013-02-12 10:19:00,
2013-02-12 05:24:00,67.8,64.1,29.87,South,180,0.0,0.0,88,0.00,,---,0.00,VWS V14.00,2013-02-12 10:24:00,
2013-02-12 05:29:00,67.8,64.1,29.87,South,180,1.7,1.7,88,0.00,,---,0.00,VWS V14.00,2013-02-12 10:29:00,
2013-02-12 05:34:00,67.8,64.1,29.86,South,180,0.0,0.0,88,0.00,,---,0.00,VWS V14.00,2013-02-12 10:34:00,
2013-02-12 05:39:00,67.8,64.1,29.86,SSE,158,0.0,0.0,88,0.00,,---,0.00,VWS V14.00,2013-02-12 10:39:00,
2013-02-12 05:44:00,67.8,64.1,29.86,SSW,202,0.0,0.0,88,0.00,,---,0.00,VWS V14.00,2013-02-12 10:44:00,
2013-02-12 05:49:00,67.8,64.1,29.86,South,180,0.0,0.0,88,0.00,,---,0.00,VWS V14.00,2013-02-12 10:49:00,
2013-02-12 05:54:00,67.8,64.1,29.86,SSW,202,2.9,2.9,88,0.00,,---,0.00,VWS V14.00,2013-02-12 10:54:00,
2013-02-12 05:59:00,67.8,64.1,29.86,South,180,0.6,0.6,88,0.00,,---,0.00,VWS V14.00,2013-02-12 10:59:00,
2013-02-12 06:04:00,67.8,64.1,29.86,South,180,0.0,0.0,88,0.00,,---,0.00,VWS V14.00,2013-02-12 11:04:00,
2013-02-12 06:09:00,67.8,64.1,29.87,South,180,0.0,0.0,88,0.00,,---,0.00,VWS V14.00,2013-02-12 11:09:00,
2013-02-12 06:14:00,67.8,64.1,29.87,South,180,0.0,0.0,88,0.00,,---,0.00,VWS V14.00,2013-02-12 11:14:00,
2013-02-12 06:19:00,67.8,64.1,29.87,South,180,0.0,0.0,88,0.00,,---,0.00,VWS V14.00,2013-02-12 11:19:00,
2013-02-12 06:24:00,67.8,64.1,29.87,South,180,0.0,0.0,88,0.00,,---,0.00,VWS V14.00,2013-02-12 11:24:00,
2013-02-12 06:29:00,67.8,64.1,29.87,South,180,0.0,0.0,88,0.00,,---,0.00,VWS V14.00,2013-02-12 11:29:00,
2013-02-12 06:34:00,67.8,64.1,29.88,South,180,0.0,0.0,88,0.00,,---,0.00,VWS V14.00,2013-02-12 11:34:00,
2013-02-12 06:39:00,67.8,64.1,29.88,South,180,0.0,0.0,88,0.00,,---,0.00,VWS V14.00,2013-02-12 11:39:00,
2013-02-12 06:44:00,67.8,64.1,29.88,South,180,0.0,0.0,88,0.00,,---,0.00,VWS V14.00,2013-02-12 11:44:00,
2013-02-12 06:49:00,67.8,64.1,29.88,South,180,0.0,0.0,88,0.00,,---,0.00,VWS V14.00,2013-02-12 11:49:00,
2013-02-12 06:54:00,67.8,64.1,29.88,South,180,0.0,0.0,88,0.00,,---,0.00,VWS V14.00,2013-02-12 11:54:00,
2013-02-12 06:59:00,67.6,63.9,29.88,South,180,0.0,0.0,88,0.00,,---,0.00,VWS V14.00,2013-02-12 11:59:00,
2013-02-12 07:04:00,67.6,63.9,29.88,South,180,0.0,0.0,88,0.00,,---,0.00,VWS V14.00,2013-02-12 12:04:00,
2013-02-12 07:09:00,67.6,63.9,29.89,South,180,0.0,0.0,88,0.00,,---,0.00,VWS V14.00,2013-02-12 12:09:00,
2013-02-12 07:14:00,67.6,63.9,29.89,South,180,0.0,0.0,88,0.00,,---,0.00,VWS V14.00,2013-02-12 12:14:00,
2013-02-12 07:19:00,67.4,63.7,29.89,SSE,158,0.0,0.0,88,0.00,,---,0.00,VWS V14.00,2013-02-12 12:19:00,
2013-02-12 07:24:00,67.2,63.5,29.89,SSE,158,0.0,0.0,88,0.00,,---,0.00,VWS V14.00,2013-02-12 12:24:00,
2013-02-12 07:29:00,67.6,63.9,29.90,SSE,158,0.0,0.0,88,0.00,,---,0.00,VWS V14.00,2013-02-12 12:29:00,
2013-02-12 07:34:00,67.6,63.9,29.90,SSE,158,0.0,0.0,88,0.00,,---,0.00,VWS V14.00,2013-02-12 12:34:00,
2013-02-12 07:39:00,67.8,64.1,29.90,SSE,158,0.0,0.0,88,0.00,,---,0.00,VWS V14.00,2013-02-12 12:39:00,
2013-02-12 07:44:00,67.8,64.1,29.90,SSE,158,0.0,0.0,88,0.00,,---,0.00,VWS V14.00,2013-02-12 12:44:00,
2013-02-12 07:49:00,67.8,64.1,29.90,SSE,158,0.0,0.0,88,0.00,,---,0.00,VWS V14.00,2013-02-12 12:49:00,
2013-02-12 07:54:00,68.0,64.3,29.90,SSE,158,0.0,0.0,88,0.00,,---,0.00,VWS V14.00,2013-02-12 12:54:00,
2013-02-12 07:59:00,68.3,64.6,29.90,WSW,248,0.0,0.0,88,0.00,,---,0.00,VWS V14.00,2013-02-12 12:59:00,
2013-02-12 08:04:00,68.5,64.5,29.90,WSW,248,0.0,0.0,87,0.00,,---,0.00,VWS V14.00,2013-02-12 13:04:00,
2013-02-12 08:09:00,68.7,64.7,29.90,SSW,202,0.0,0.0,87,0.00,,---,0.00,VWS V14.00,2013-02-12 13:09:00,
2013-02-12 08:14:00,69.2,65.5,29.90,South,180,0.0,0.0,88,0.00,,---,0.00,VWS V14.00,2013-02-12 13:14:00,
2013-02-12 08:19:00,69.6,65.6,29.90,SSE,158,0.0,0.0,87,0.00,,---,0.00,VWS V14.00,2013-02-12 13:19:00,
2013-02-12 08:24:00,70.1,66.1,29.90,SSE,158,0.0,0.0,87,0.00,,---,0.00,VWS V14.00,2013-02-12 13:24:00,
2013-02-12 08:29:00,70.5,66.4,29.90,SE,135,0.0,0.0,87,0.00,,---,0.00,VWS V14.00,2013-02-12 13:29:00,
2013-02-12 08:34:00,70.8,66.7,29.90,South,180,0.0,0.0,87,0.00,,---,0.00,VWS V14.00,2013-02-12 13:34:00,
2013-02-12 08:39:00,71.2,67.1,29.90,SSW,202,0.0,0.0,87,0.00,,---,0.00,VWS V14.00,2013-02-12 13:39:00,
2013-02-12 08:44:00,71.4,67.3,29.90,South,180,2.6,2.6,87,0.00,,---,0.00,VWS V14.00,2013-02-12 13:44:00,
2013-02-12 08:49:00,71.9,67.5,29.90,WSW,248,5.3,5.3,86,0.00,,---,0.00,VWS V14.00,2013-02-12 13:49:00,
2013-02-12 08:54:00,72.3,67.9,29.90,SW,225,2.2,2.2,86,0.00,,---,0.00,VWS V14.00,2013-02-12 13:54:00,
2013-02-12 08:59:00,72.3,67.5,29.91,South,180,1.5,1.5,85,0.00,,---,0.00,VWS V14.00,2013-02-12 13:59:00,
2013-02-12 09:04:00,72.5,67.7,29.91,SSW,202,4.2,5.8,85,0.00,,---,0.00,VWS V14.00,2013-02-12 14:04:00,
2013-02-12 09:09:00,72.6,67.8,29.91,SW,225,2.6,4.6,85,0.00,,---,0.00,VWS V14.00,2013-02-12 14:09:00,
2013-02-12 09:14:00,73.0,67.9,29.91,South,180,0.0,0.0,84,0.00,,---,0.00,VWS V14.00,2013-02-12 14:14:00,
2013-02-12 09:19:00,73.2,68.1,29.91,South,180,1.5,6.0,84,0.00,,---,0.00,VWS V14.00,2013-02-12 14:19:00,
2013-02-12 09:24:00,73.2,68.1,29.91,SW,225,8.5,8.5,84,0.00,,---,0.00,VWS V14.00,2013-02-12 14:24:00,
2013-02-12 09:29:00,73.5,68.4,29.91,SSW,202,0.0,0.0,84,0.00,,---,0.00,VWS V14.00,2013-02-12 14:29:00,
2013-02-12 09:34:00,73.9,68.8,29.91,South,180,0.0,0.0,84,0.00,,---,0.00,VWS V14.00,2013-02-12 14:34:00,
2013-02-12 09:39:00,74.3,69.2,29.91,SSW,202,2.2,2.2,84,0.00,,---,0.00,VWS V14.00,2013-02-12 14:39:00,
2013-02-12 09:44:00,74.6,69.1,29.90,SSW,202,8.5,8.5,83,0.00,,---,0.00,VWS V14.00,2013-02-12 14:44:00,
2013-02-12 09:49:00,75.0,69.1,29.91,SSE,158,5.1,5.1,82,0.00,,---,0.00,VWS V14.00,2013-02-12 14:49:00,
2013-02-12 09:54:00,75.0,69.1,29.91,South,180,2.2,2.2,82,0.00,,---,0.00,VWS V14.00,2013-02-12 14:54:00,
2013-02-12 09:59:00,75.2,69.0,29.91,SSW,202,4.9,4.9,81,0.00,,---,0.00,VWS V14.00,2013-02-12 14:59:00,
2013-02-12 10:04:00,75.3,69.1,29.92,SSW,202,4.9,4.9,81,0.00,,---,0.00,VWS V14.00,2013-02-12 15:04:00,
2013-02-12 10:09:00,75.5,69.3,29.91,South,180,4.2,4.2,81,0.00,,---,0.00,VWS V14.00,2013-02-12 15:09:00,
2013-02-12 10:14:00,75.9,69.3,29.91,South,180,5.1,5.1,80,0.00,,---,0.00,VWS V14.00,2013-02-12 15:14:00,
2013-02-12 10:19:00,76.1,69.5,29.91,SSW,202,12.0,12.0,80,0.00,,---,0.00,VWS V14.00,2013-02-12 15:19:00,
2013-02-12 10:24:00,76.2,69.2,29.91,SW,225,4.9,4.9,79,0.00,,---,0.00,VWS V14.00,2013-02-12 15:24:00,
2013-02-12 10:29:00,76.6,69.6,29.91,South,180,14.7,14.7,79,0.00,,---,0.00,VWS V14.00,2013-02-12 15:29:00,
2013-02-12 10:34:00,76.8,69.8,29.91,SSW,202,7.1,7.1,79,0.00,,---,0.00,VWS V14.00,2013-02-12 15:34:00,
2013-02-12 10:39:00,76.8,69.4,29.91,South,180,6.9,6.9,78,0.00,,---,0.00,VWS V14.00,2013-02-12 15:39:00,
2013-02-12 10:44:00,76.8,69.4,29.91,SSW,202,7.3,7.3,78,0.00,,---,0.00,VWS V14.00,2013-02-12 15:44:00,
2013-02-12 10:49:00,77.0,69.6,29.91,SW,225,2.9,2.9,78,0.00,,---,0.00,VWS V14.00,2013-02-12 15:49:00,
2013-02-12 10:54:00,77.3,69.5,29.91,South,180,3.8,3.8,77,0.00,,---,0.00,VWS V14.00,2013-02-12 15:54:00,
2013-02-12 10:59:00,77.9,70.5,29.91,SSW,202,5.3,5.3,78,0.00,,---,0.00,VWS V14.00,2013-02-12 15:59:00,
2013-02-12 11:04:00,78.6,70.8,29.91,South,180,7.3,7.3,77,0.00,,---,0.00,VWS V14.00,2013-02-12 16:04:00,
2013-02-12 11:09:00,79.1,70.9,29.91,South,180,8.0,8.0,76,0.00,,---,0.00,VWS V14.00,2013-02-12 16:09:00,
2013-02-12 11:14:00,79.5,70.9,29.91,WSW,248,6.0,6.0,75,0.00,,---,0.00,VWS V14.00,2013-02-12 16:14:00,
2013-02-12 11:19:00,79.7,70.7,29.91,SW,225,14.7,14.7,74,0.00,,---,0.00,VWS V14.00,2013-02-12 16:19:00,
2013-02-12 11:24:00,80.0,71.0,29.91,SW,225,10.5,10.5,74,0.00,,---,0.00,VWS V14.00,2013-02-12 16:24:00,
2013-02-12 11:29:00,80.0,70.6,29.91,SW,225,9.1,9.1,73,0.00,,---,0.00,VWS V14.00,2013-02-12 16:29:00,
2013-02-12 11:34:00,79.8,70.0,29.90,SSW,202,8.2,8.2,72,0.00,,---,0.00,VWS V14.00,2013-02-12 16:34:00,
2013-02-12 11:39:00,80.2,70.4,29.90,SW,225,7.1,7.1,72,0.00,,---,0.00,VWS V14.00,2013-02-12 16:39:00,
2013-02-12 11:44:00,80.4,70.6,29.90,SW,225,8.9,8.9,72,0.00,,---,0.00,VWS V14.00,2013-02-12 16:44:00,
2013-02-12 11:49:00,80.4,70.6,29.90,SW,225,10.5,10.5,72,0.00,,---,0.00,VWS V14.00,2013-02-12 16:49:00,
2013-02-12 11:54:00,80.4,70.6,29.90,WSW,248,13.1,13.1,72,0.00,,---,0.00,VWS V14.00,2013-02-12 16:54:00,
2013-02-12 11:59:00,80.4,70.6,29.90,WSW,248,14.3,14.3,72,0.00,,---,0.00,VWS V14.00,2013-02-12 16:59:00,
2013-02-12 12:04:00,80.7,70.8,29.89,WSW,248,5.8,5.8,72,0.00,,---,0.00,VWS V14.00,2013-02-12 17:04:00,
2013-02-12 12:09:00,80.6,70.3,29.89,South,180,10.2,10.2,71,0.00,,---,0.00,VWS V14.00,2013-02-12 17:09:00,
2013-02-12 12:14:00,80.6,70.3,29.88,SSW,202,3.5,3.5,71,0.00,,---,0.00,VWS V14.00,2013-02-12 17:14:00,
2013-02-12 12:19:00,81.1,70.8,29.88,SW,225,6.0,6.0,71,0.00,,---,0.00,VWS V14.00,2013-02-12 17:19:00,
2013-02-12 12:24:00,81.1,70.4,29.88,West,270,5.3,5.3,70,0.00,,---,0.00,VWS V14.00,2013-02-12 17:24:00,
2013-02-12 12:29:00,81.5,70.8,29.87,West,270,3.5,3.5,70,0.00,,---,0.00,VWS V14.00,2013-02-12 17:29:00,
2013-02-12 12:34:00,82.2,71.4,29.87,SSW,202,18.1,18.1,70,0.00,,---,0.00,VWS V14.00,2013-02-12 17:34:00,
2013-02-12 12:39:00,82.5,71.3,29.87,WSW,248,3.8,3.8,69,0.00,,---,0.00,VWS V14.00,2013-02-12 17:39:00,
2013-02-12 12:44:00,83.1,71.9,29.87,South,180,5.5,5.5,69,0.00,,---,0.00,VWS V14.00,2013-02-12 17:44:00,
2013-02-12 12:49:00,83.6,71.9,29.86,South,180,8.0,8.0,68,0.00,,---,0.00,VWS V14.00,2013-02-12 17:49:00,
2013-02-12 12:54:00,84.0,71.9,29.87,SW,225,11.8,11.8,67,0.00,,---,0.00,VWS V14.00,2013-02-12 17:54:00,
2013-02-12 12:59:00,84.0,71.4,29.86,SSE,158,6.2,6.2,66,0.00,,---,0.00,VWS V14.00,2013-02-12 17:59:00,
2013-02-12 13:04:00,84.0,71.4,29.86,WSW,248,8.7,8.7,66,0.00,,---,0.00,VWS V14.00,2013-02-12 18:04:00,
2013-02-12 13:09:00,84.3,71.7,29.86,SSW,202,11.1,11.1,66,0.00,,---,0.00,VWS V14.00,2013-02-12 18:09:00,
2013-02-12 13:14:00,84.5,71.9,29.85,SW,225,11.6,11.6,66,0.00,,---,0.00,VWS V14.00,2013-02-12 18:14:00,
2013-02-12 13:19:00,84.7,71.6,29.84,SSW,202,7.3,7.3,65,0.00,,---,0.00,VWS V14.00,2013-02-12 18:19:00,
2013-02-12 13:24:00,84.9,71.8,29.84,SSW,202,11.1,11.1,65,0.00,,---,0.00,VWS V14.00,2013-02-12 18:24:00,
2013-02-12 13:29:00,84.7,71.6,29.84,SSW,202,13.1,13.1,65,0.00,,---,0.00,VWS V14.00,2013-02-12 18:29:00,
2013-02-12 13:34:00,84.5,71.4,29.83,WSW,248,3.1,3.1,65,0.00,,---,0.00,VWS V14.00,2013-02-12 18:34:00,
2013-02-12 13:39:00,84.3,71.3,29.82,SW,225,11.8,11.8,65,0.00,,---,0.00,VWS V14.00,2013-02-12 18:39:00,
2013-02-12 13:44:00,84.3,71.3,29.82,SSW,202,6.0,6.0,65,0.00,,---,0.00,VWS V14.00,2013-02-12 18:44:00,
2013-02-12 13:49:00,84.3,71.3,29.82,SSW,202,6.7,6.7,65,0.00,,---,0.00,VWS V14.00,2013-02-12 18:49:00,
2013-02-12 13:54:00,84.2,71.2,29.82,South,180,8.9,8.9,65,0.00,,---,0.00,VWS V14.00,2013-02-12 18:54:00,
2013-02-12 13:59:00,84.3,71.3,29.81,SSW,202,10.5,10.5,65,0.00,,---,0.00,VWS V14.00,2013-02-12 18:59:00,
2013-02-12 14:04:00,84.2,71.2,29.80,SSW,202,17.2,17.2,65,0.00,,---,0.00,VWS V14.00,2013-02-12 19:04:00,
2013-02-12 14:09:00,84.0,71.0,29.80,SSW,202,14.0,14.0,65,0.00,,---,0.00,VWS V14.00,2013-02-12 19:09:00,
2013-02-12 14:14:00,84.0,71.0,29.80,SSW,202,15.4,15.4,65,0.00,,---,0.00,VWS V14.00,2013-02-12 19:14:00,
2013-02-12 14:19:00,84.0,71.0,29.80,SSE,158,15.4,15.4,65,0.00,,---,0.00,VWS V14.00,2013-02-12 19:19:00,
2013-02-12 14:24:00,83.8,70.8,29.80,SSE,158,6.0,6.0,65,0.00,,---,0.00,VWS V14.00,2013-02-12 19:24:00,
2013-02-12 14:29:00,83.8,70.8,29.79,SW,225,5.8,5.8,65,0.00,,---,0.00,VWS V14.00,2013-02-12 19:29:00,
2013-02-12 14:34:00,83.8,70.8,29.79,SW,225,13.6,13.6,65,0.00,,---,0.00,VWS V14.00,2013-02-12 19:34:00,
2013-02-12 14:39:00,83.4,70.4,29.79,SW,225,13.1,13.1,65,0.00,,---,0.00,VWS V14.00,2013-02-12 19:39:00,
2013-02-12 14:44:00,83.3,70.8,29.79,SSW,202,11.4,11.4,66,0.00,,---,0.00,VWS V14.00,2013-02-12 19:44:00,
2013-02-12 14:49:00,82.9,70.4,29.79,SSE,158,6.9,6.9,66,0.00,,---,0.00,VWS V14.00,2013-02-12 19:49:00,
2013-02-12 14:54:00,82.7,70.2,29.79,SW,225,14.3,14.3,66,0.00,,---,0.00,VWS V14.00,2013-02-12 19:54:00,
2013-02-12 14:59:00,82.5,70.4,29.79,WSW,248,8.0,8.0,67,0.00,,---,0.00,VWS V14.00,2013-02-12 19:59:00,
2013-02-12 15:04:00,82.5,70.4,29.78,WSW,248,8.5,8.5,67,0.00,,---,0.00,VWS V14.00,2013-02-12 20:04:00,
2013-02-12 15:09:00,82.2,70.6,29.78,SSW,202,11.4,11.4,68,0.00,,---,0.00,VWS V14.00,2013-02-12 20:09:00,
2013-02-12 15:14:00,82.2,70.6,29.79,WSW,248,6.4,6.4,68,0.00,,---,0.00,VWS V14.00,2013-02-12 20:14:00,
2013-02-12 15:19:00,82.0,70.4,29.79,SSW,202,6.9,6.9,68,0.00,,---,0.00,VWS V14.00,2013-02-12 20:19:00,
2013-02-12 15:24:00,82.0,70.4,29.79,WSW,248,4.4,4.4,68,0.00,,---,0.00,VWS V14.00,2013-02-12 20:24:00,
2013-02-12 15:29:00,82.0,70.4,29.79,SSW,202,9.8,9.8,68,0.00,,---,0.00,VWS V14.00,2013-02-12 20:29:00,
2013-02-12 15:34:00,81.6,70.0,29.80,SW,225,8.2,8.2,68,0.00,,---,0.00,VWS V14.00,2013-02-12 20:34:00,
2013-02-12 15:39:00,81.5,70.4,29.79,SW,225,12.7,12.7,69,0.00,,---,0.00,VWS V14.00,2013-02-12 20:39:00,
2013-02-12 15:44:00,81.3,70.2,29.79,SW,225,5.1,5.1,69,0.00,,---,0.00,VWS V14.00,2013-02-12 20:44:00,
2013-02-12 15:49:00,81.1,70.0,29.79,SW,225,7.6,7.6,69,0.00,,---,0.00,VWS V14.00,2013-02-12 20:49:00,
2013-02-12 15:53:00,81.1,70.0,29.79,SW,225,6.2,6.2,69,0.00,,---,0.00,VWS V14.00,2013-02-12 20:53:00,
2013-02-12 15:58:00,80.9,70.2,29.79,SSW,202,9.8,9.8,70,0.00,,---,0.00,VWS V14.00,2013-02-12 20:58:00,
2013-02-12 16:03:00,80.7,70.0,29.78,SW,225,11.6,11.6,70,0.00,,---,0.00,VWS V14.00,2013-02-12 21:03:00,
2013-02-12 16:08:00,80.7,70.0,29.78,SW,225,9.1,9.1,70,0.00,,---,0.00,VWS V14.00,2013-02-12 21:08:00,
2013-02-12 16:13:00,80.4,69.7,29.78,WSW,248,4.2,4.2,70,0.00,,---,0.00,VWS V14.00,2013-02-12 21:13:00,
2013-02-12 16:18:00,80.2,69.9,29.78,SW,225,5.1,5.1,71,0.00,,---,0.00,VWS V14.00,2013-02-12 21:18:00,
2013-02-12 16:23:00,79.7,69.5,29.78,SW,225,8.2,8.2,71,0.00,,---,0.00,VWS V14.00,2013-02-12 21:23:00,
2013-02-12 16:28:00,79.5,69.7,29.78,WNW,292,0.0,0.0,72,0.00,,---,0.00,VWS V14.00,2013-02-12 21:28:00,
2013-02-12 16:33:00,79.5,69.7,29.78,SW,225,0.0,0.0,72,0.00,,---,0.00,VWS V14.00,2013-02-12 21:33:00,
2013-02-12 16:38:00,79.1,69.3,29.79,South,180,9.3,9.3,72,0.00,,---,0.00,VWS V14.00,2013-02-12 21:38:00,
2013-02-12 16:43:00,78.8,69.0,29.78,SSW,202,8.2,8.2,72,0.00,,---,0.00,VWS V14.00,2013-02-12 21:43:00,
2013-02-12 16:48:00,78.6,69.2,29.78,SW,225,6.4,6.4,73,0.00,,---,0.00,VWS V14.00,2013-02-12 21:48:00,
2013-02-12 16:53:00,78.6,69.2,29.78,SW,225,3.5,3.5,73,0.00,,---,0.00,VWS V14.00,2013-02-12 21:53:00,
2013-02-12 16:58:00,78.4,69.0,29.78,SSW,202,14.3,14.3,73,0.00,,---,0.00,VWS V14.00,2013-02-12 21:58:00,
2013-02-12 17:03:00,78.2,69.2,29.78,South,180,8.5,8.5,74,0.00,,---,0.00,VWS V14.00,2013-02-12 22:03:00,
2013-02-12 17:08:00,78.0,69.1,29.77,South,180,13.6,13.6,74,0.00,,---,0.00,VWS V14.00,2013-02-12 22:08:00,
2013-02-12 17:13:00,78.0,69.1,29.77,SW,225,3.8,3.8,74,0.00,,---,0.00,VWS V14.00,2013-02-12 22:13:00,
2013-02-12 17:18:00,78.0,69.1,29.77,SSW,202,1.1,1.1,74,0.00,,---,0.00,VWS V14.00,2013-02-12 22:18:00,
2013-02-12 17:23:00,77.9,68.9,29.78,South,180,3.5,3.5,74,0.00,,---,0.00,VWS V14.00,2013-02-12 22:23:00,
2013-02-12 17:28:00,77.5,68.6,29.77,SW,225,3.5,3.5,74,0.00,,---,0.00,VWS V14.00,2013-02-12 22:28:00,
2013-02-12 17:33:00,77.3,68.8,29.78,South,180,4.9,4.9,75,0.00,,---,0.00,VWS V14.00,2013-02-12 22:33:00,
2013-02-12 17:38:00,77.1,68.6,29.78,SSW,202,5.5,5.5,75,0.00,,---,0.00,VWS V14.00,2013-02-12 22:38:00,
2013-02-12 17:43:00,76.8,68.7,29.78,South,180,4.6,4.6,76,0.00,,---,0.00,VWS V14.00,2013-02-12 22:43:00,
2013-02-12 17:48:00,76.6,68.5,29.77,SSW,202,7.1,7.1,76,0.00,,---,0.00,VWS V14.00,2013-02-12 22:48:00,
2013-02-12 17:53:00,76.1,68.0,29.77,SW,225,6.7,6.7,76,0.00,,---,0.00,VWS V14.00,2013-02-12 22:53:00,
2013-02-12 17:58:00,75.9,68.2,29.77,SW,225,9.8,9.8,77,0.00,,---,0.00,VWS V14.00,2013-02-12 22:58:00,
2013-02-12 18:03:00,75.3,68.0,29.77,SW,225,9.6,9.6,78,0.00,,---,0.00,VWS V14.00,2013-02-12 23:03:00,
2013-02-12 18:08:00,75.0,67.7,29.77,SSW,202,7.3,7.3,78,0.00,,---,0.00,VWS V14.00,2013-02-12 23:08:00,
2013-02-12 18:13:00,74.8,67.9,29.77,South,180,5.5,5.5,79,0.00,,---,0.00,VWS V14.00,2013-02-12 23:13:00,
2013-02-12 18:18:00,74.3,67.7,29.77,SSW,202,10.2,10.2,80,0.00,,---,0.00,VWS V14.00,2013-02-12 23:18:00,
2013-02-12 18:23:00,74.1,67.5,29.77,SW,225,4.0,4.0,80,0.00,,---,0.00,VWS V14.00,2013-02-12 23:23:00,
2013-02-12 18:28:00,73.9,67.3,29.77,WSW,248,7.1,7.1,80,0.00,,---,0.00,VWS V14.00,2013-02-12 23:28:00,
2013-02-12 18:33:00,73.5,67.3,29.78,WSW,248,2.0,2.0,81,0.00,,---,0.00,VWS V14.00,2013-02-12 23:33:00,
2013-02-12 18:38:00,73.5,67.3,29.77,SSW,202,0.0,0.0,81,0.00,,---,0.00,VWS V14.00,2013-02-12 23:38:00,
2013-02-12 18:43:00,73.2,67.4,29.77,SW,225,4.4,4.4,82,0.00,,---,0.00,VWS V14.00,2013-02-12 23:43:00,
2013-02-12 18:48:00,73.2,67.4,29.77,SSW,202,3.3,3.3,82,0.00,,---,0.00,VWS V14.00,2013-02-12 23:48:00,
2013-02-12 18:53:00,73.2,67.7,29.78,SW,225,12.5,12.5,83,0.00,,---,0.00,VWS V14.00,2013-02-12 23:53:00,
2013-02-12 18:58:00,73.2,67.7,29.78,WSW,248,9.6,9.6,83,0.00,,---,0.00,VWS V14.00,2013-02-12 23:58:00,
2013-02-12 19:03:00,73.2,67.7,29.77,SSW,202,4.4,4.4,83,0.00,,---,0.00,VWS V14.00,2013-02-13 00:03:00,
2013-02-12 19:08:00,73.2,68.1,29.77,WNW,292,0.0,0.0,84,0.00,,---,0.00,VWS V14.00,2013-02-13 00:08:00,
2013-02-12 19:13:00,73.0,67.9,29.77,SSW,202,1.7,1.7,84,0.00,,---,0.00,VWS V14.00,2013-02-13 00:13:00,
2013-02-12 19:18:00,73.0,67.9,29.78,SSW,202,5.5,5.5,84,0.00,,---,0.00,VWS V14.00,2013-02-13 00:18:00,
2013-02-12 19:23:00,72.6,67.5,29.78,South,180,8.2,8.2,84,0.00,,---,0.00,VWS V14.00,2013-02-13 00:23:00,
2013-02-12 19:28:00,72.5,67.4,29.78,SW,225,5.5,5.5,84,0.00,,---,0.00,VWS V14.00,2013-02-13 00:28:00,
2013-02-12 19:33:00,72.3,67.2,29.78,SW,225,8.2,8.2,84,0.00,,---,0.00,VWS V14.00,2013-02-13 00:33:00,
2013-02-12 19:38:00,72.3,67.2,29.78,SW,225,12.5,12.5,84,0.00,,---,0.00,VWS V14.00,2013-02-13 00:38:00,
2013-02-12 19:43:00,72.1,67.0,29.78,West,270,3.1,3.1,84,0.00,,---,0.00,VWS V14.00,2013-02-13 00:43:00,
2013-02-12 19:48:00,72.1,67.3,29.78,WSW,248,2.9,2.9,85,0.00,,---,0.00,VWS V14.00,2013-02-13 00:48:00,
2013-02-12 19:53:00,71.9,67.2,29.78,South,180,1.1,1.1,85,0.00,,---,0.00,VWS V14.00,2013-02-13 00:53:00,
2013-02-12 19:58:00,71.7,66.9,29.78,South,180,0.0,0.0,85,0.00,,---,0.00,VWS V14.00,2013-02-13 00:58:00,
2013-02-12 20:03:00,71.7,66.9,29.78,SSW,202,4.4,4.4,85,0.00,,---,0.00,VWS V14.00,2013-02-13 01:03:00,
2013-02-12 20:08:00,71.7,66.9,29.79,WSW,248,2.0,2.0,85,0.00,,---,0.00,VWS V14.00,2013-02-13 01:08:00,
2013-02-12 20:13:00,71.7,66.9,29.79,WSW,248,4.2,4.2,85,0.00,,---,0.00,VWS V14.00,2013-02-13 01:13:00,
2013-02-12 20:18:00,71.6,66.9,29.78,WSW,248,2.0,2.0,85,0.00,,---,0.00,VWS V14.00,2013-02-13 01:18:00,
2013-02-12 20:23:00,71.4,67.0,29.78,North,0,0.0,0.0,86,0.00,,---,0.00,VWS V14.00,2013-02-13 01:23:00,
2013-02-12 20:28:00,71.6,67.2,29.78,SSW,202,5.1,5.1,86,0.00,,---,0.00,VWS V14.00,2013-02-13 01:28:00,
2013-02-12 20:33:00,71.6,67.2,29.78,SW,225,6.7,6.7,86,0.00,,---,0.00,VWS V14.00,2013-02-13 01:33:00,
2013-02-12 20:38:00,71.7,67.3,29.79,SW,225,7.1,7.1,86,0.00,,---,0.00,VWS V14.00,2013-02-13 01:38:00,
2013-02-12 20:43:00,71.7,67.6,29.79,SSW,202,10.5,10.5,87,0.00,,---,0.00,VWS V14.00,2013-02-13 01:43:00,
2013-02-12 20:48:00,71.7,67.6,29.79,SSW,202,2.0,2.0,87,0.00,,---,0.00,VWS V14.00,2013-02-13 01:48:00,
2013-02-12 20:53:00,71.6,67.5,29.79,SW,225,6.4,6.4,87,0.00,,---,0.00,VWS V14.00,2013-02-13 01:53:00,
2013-02-12 20:58:00,71.7,67.6,29.79,SSW,202,8.5,8.5,87,0.00,,---,0.00,VWS V14.00,2013-02-13 01:58:00,
2013-02-12 21:03:00,71.6,67.5,29.79,SSW,202,2.6,2.6,87,0.00,,---,0.00,VWS V14.00,2013-02-13 02:03:00,
2013-02-12 21:08:00,71.7,67.6,29.79,WSW,248,5.8,5.8,87,0.00,,---,0.00,VWS V14.00,2013-02-13 02:08:00,
2013-02-12 21:13:00,71.7,67.6,29.79,SW,225,8.5,8.5,87,0.00,,---,0.00,VWS V14.00,2013-02-13 02:13:00,
2013-02-12 21:18:00,71.7,67.6,29.79,SW,225,5.5,5.5,87,0.00,,---,0.00,VWS V14.00,2013-02-13 02:18:00,
2013-02-12 21:23:00,71.7,67.6,29.78,SSW,202,6.7,6.7,87,0.00,,---,0.00,VWS V14.00,2013-02-13 02:23:00,
2013-02-12 21:28:00,71.7,67.6,29.78,SSW,202,5.8,5.8,87,0.00,,---,0.00,VWS V14.00,2013-02-13 02:28:00,
2013-02-12 21:33:00,71.7,68.0,29.79,SW,225,5.8,5.8,88,0.00,,---,0.00,VWS V14.00,2013-02-13 02:33:00,
2013-02-12 21:38:00,71.7,68.0,29.79,SW,225,4.0,4.0,88,0.00,,---,0.00,VWS V14.00,2013-02-13 02:38:00,
2013-02-12 21:43:00,71.9,68.2,29.79,SSW,202,4.4,9.1,88,0.00,,---,0.00,VWS V14.00,2013-02-13 02:43:00,
2013-02-12 21:48:00,71.9,68.2,29.79,SSW,202,4.4,4.4,88,0.00,,---,0.00,VWS V14.00,2013-02-13 02:48:00,
2013-02-12 21:53:00,71.9,68.2,29.79,SSW,202,4.2,4.2,88,0.00,,---,0.00,VWS V14.00,2013-02-13 02:53:00,
2013-02-12 21:58:00,72.1,68.3,29.79,SW,225,7.8,7.8,88,0.00,,---,0.00,VWS V14.00,2013-02-13 02:58:00,
2013-02-12 22:03:00,72.1,68.3,29.79,WSW,248,3.5,7.6,88,0.00,,---,0.00,VWS V14.00,2013-02-13 03:03:00,
2013-02-12 22:08:00,72.1,68.3,29.79,SSW,202,2.2,3.1,88,0.00,,---,0.00,VWS V14.00,2013-02-13 03:08:00,
2013-02-12 22:13:00,72.1,68.3,29.79,WSW,248,4.2,4.2,88,0.00,,---,0.00,VWS V14.00,2013-02-13 03:13:00,
2013-02-12 22:18:00,72.3,68.6,29.80,SSW,202,5.8,5.8,88,0.00,,---,0.00,VWS V14.00,2013-02-13 03:18:00,
2013-02-12 22:23:00,72.3,68.6,29.80,SSE,158,2.4,2.4,88,0.00,,---,0.00,VWS V14.00,2013-02-13 03:23:00,
2013-02-12 22:28:00,72.3,68.6,29.80,WSW,248,5.8,5.8,88,0.00,,---,0.00,VWS V14.00,2013-02-13 03:28:00,
2013-02-12 22:33:00,72.1,68.3,29.79,WNW,292,4.0,4.0,88,0.00,,---,0.00,VWS V14.00,2013-02-13 03:33:00,
2013-02-12 22:38:00,72.1,68.3,29.79,WSW,248,4.2,4.2,88,0.00,,---,0.00,VWS V14.00,2013-02-13 03:38:00,
2013-02-12 22:43:00,72.1,68.3,29.79,SSW,202,6.4,6.4,88,0.00,,---,0.00,VWS V14.00,2013-02-13 03:43:00,
2013-02-12 22:48:00,72.1,68.3,29.79,SW,225,6.0,6.0,88,0.00,,---,0.00,VWS V14.00,2013-02-13 03:48:00,
2013-02-12 22:53:00,72.1,68.3,29.79,SW,225,10.0,10.0,88,0.00,,---,0.00,VWS V14.00,2013-02-13 03:53:00,
2013-02-12 22:58:00,71.9,68.2,29.79,South,180,7.1,7.1,88,0.00,,---,0.00,VWS V14.00,2013-02-13 03:58:00,
2013-02-12 23:03:00,71.9,68.2,29.79,SW,225,4.4,4.4,88,0.00,,---,0.00,VWS V14.00,2013-02-13 04:03:00,
2013-02-12 23:08:00,71.9,68.2,29.79,SSW,202,4.6,4.6,88,0.00,,---,0.00,VWS V14.00,2013-02-13 04:08:00,
2013-02-12 23:13:00,71.7,68.0,29.79,SSW,202,8.5,8.5,88,0.00,,---,0.00,VWS V14.00,2013-02-13 04:13:00,
2013-02-12 23:18:00,71.7,68.0,29.79,SSW,202,8.0,8.0,88,0.00,,---,0.00,VWS V14.00,2013-02-13 04:18:00,
2013-02-12 23:23:00,71.7,68.0,29.79,WSW,248,2.4,2.4,88,0.00,,---,0.00,VWS V14.00,2013-02-13 04:23:00,
2013-02-12 23:28:00,71.7,68.0,29.79,WSW,248,3.3,3.3,88,0.00,,---,0.00,VWS V14.00,2013-02-13 04:28:00,
2013-02-12 23:33:00,71.7,68.0,29.79,SW,225,4.4,4.4,88,0.00,,---,0.00,VWS V14.00,2013-02-13 04:33:00,
2013-02-12 23:38:00,71.7,68.0,29.78,SW,225,3.3,3.3,88,0.00,,---,0.00,VWS V14.00,2013-02-13 04:38:00,
2013-02-12 23:43:00,71.7,68.3,29.78,South,180,3.1,3.1,89,0.00,,---,0.00,VWS V14.00,2013-02-13 04:43:00,
2013-02-12 23:48:00,71.7,68.3,29.78,South,180,10.7,10.7,89,0.00,,---,0.00,VWS V14.00,2013-02-13 04:48:00,
2013-02-12 23:53:00,71.7,68.3,29.78,SW,225,3.3,3.3,89,0.00,,---,0.00,VWS V14.00,2013-02-13 04:53:00,
2013-02-12 23:58:00,71.7,68.3,29.78,South,180,3.3,3.3,89,0.00,,---,0.00,VWS V14.00,2013-02-13 04:58:00,